Starlink 35808

operational
NORAD ID: 68052 Int'l Des: 2026-041 Owner: SPXS Country: US Constellation: starlink
LEOCIRCULAR

About Starlink 35808

Description loading...

Live Position

Loading 3D Globe...

Upcoming Passes

Altitude History

Altitude vs Time

uPlot chart will show altitude changes over time

Two-Line Element Set

1 68052C 26041N 26061.44215278 .00468050 00000+0 62698-3 0 618
2 68052 53.1641 99.6779 0008118 277.6343 147.6058 16.05290928 14
Epoch: Mar 2, 2026 • Age: 30 hours

Current Status

Altitude 265.3 km
Velocity 7.75 km/s
Sub-Earth Point 37.36°N, 14.84°W
Launch Date Mar 2, 2026
Age 1 days
Type internet

Technical Details

Classification Payload
Mass 575.00 kg
Dry Mass 530.00 kg
Total Mass 575.00 kg
Length 0.30 m
Diameter 4.10 m
Span 29.00 m
Shape Box + pan
Manufacturer SPXS
Bus Type Starlink V2MO
Phase Status In Orbit
Owner/State SPXS/US

Large Constellations

Loading constellations...